Theta_e
324 319 319 319 320 319 319 319 319 320 320 320 320 319 318 319 321 323 324 324 322 322 325 327 323 315 314 317 317 316 315 314 313 313 313 314 314 315 316 316 317 320 322 325 326 327 327 328 328 328 329 330 330 329 328 328 328 326 323 319 320 321 322 324 325 325 325 325 325 326 325 324 323 323 324 323 324 326 326 326 326 325 326 327 327
321 320 319 319 319 319 319 319 319 319 319 319 319 318 318 318 319 321 322 323 322 321 322 325 326 319 314 314 316 316 316 314 313 313 313 313 314 315 315 316 317 319 322 324 326 327 327 327 328 328 329 330 330 330 330 330 331 330 329 327 327 326 324 323 323 324 324 323 322 323 323 324 326 327 328 328 326 325 326 327 325 325 327 328 327
320 320 319 320 319 319 319 319 319 318 318 318 318 317 318 318 319 320 321 322 322 321 320 323 326 324 317 313 314 316 316 315 313 312 313 313 314 314 315 315 316 318 322 324 326 326 324 324 326 327 328 330 331 331 330 331 332 331 332 333 332 331 330 328 325 323 324 324 324 325 325 326 328 330 331 332 331 328 326 326 326 325 326 327 325
320 320 320 320 319 319 319 319 318 318 318 318 317 317 317 317 318 319 320 320 321 320 319 320 323 326 323 316 312 313 315 316 314 313 313 313 313 314 315 315 315 317 320 323 325 324 321 321 323 325 327 329 331 331 331 332 333 333 333 333 333 333 333 333 331 326 323 324 326 327 326 327 328 329 330 331 331 330 326 325 326 325 326 327 325
321 320 320 320 319 319 319 319 318 318 318 318 317 317 317 317 318 318 319 320 320 319 318 319 320 323 325 322 316 312 314 316 315 313 313 313 313 314 315 314 315 316 319 322 323 321 319 318 319 321 324 328 330 331 331 332 333 334 334 333 334 334 334 334 334 331 325 323 325 327 328 328 330 329 328 328 329 329 327 324 324 324 326 327 326
322 320 320 320 320 319 319 319 318 318 318 318 317 317 317 317 318 318 318 319 320 319 318 318 319 320 323 325 322 317 313 315 316 313 313 313 313 314 314 314 314 315 318 320 320 319 318 318 318 318 321 326 329 331 332 332 334 334 335 334 334 334 334 334 334 332 328 325 324 325 327 328 331 331 329 327 326 326 327 323 321 321 323 325 326
321 320 321 320 319 319 319 319 318 318 318 318 317 317 317 317 318 318 318 319 320 320 319 318 318 318 320 324 326 323 317 314 316 315 313 313 313 313 314 314 314 315 316 317 318 318 317 317 317 318 319 323 326 330 333 334 334 335 335 335 335 335 335 334 334 333 329 326 325 325 325 326 329 331 332 328 324 324 323 321 319 319 320 322 324
320 321 321 320 320 319 318 319 318 318 317 317 317 317 317 318 318 319 319 319 320 320 320 319 318 318 318 320 324 326 322 316 315 315 313 313 313 313 314 314 314 314 315 316 317 317 317 317 317 317 318 320 323 327 332 334 335 335 335 335 335 335 335 335 334 334 330 326 327 326 324 324 326 329 329 324 319 319 317 318 320 320 320 320 322
320 321 320 320 319 319 319 318 318 317 317 317 317 317 317 318 318 319 320 320 321 321 320 320 319 318 318 318 320 323 325 320 315 315 314 313 313 313 314 314 314 314 315 315 316 317 317 317 317 317 317 317 320 324 329 334 335 335 335 334 334 334 334 334 334 334 329 325 328 328 325 323 324 327 326 320 318 319 316 314 315 317 318 319 320
320 321 320 320 319 319 318 317 318 317 317 317 317 317 316 317 317 318 319 320 320 320 320 320 320 319 318 318 318 320 324 322 316 316 315 313 313 313 314 314 314 314 315 315 316 317 317 317 317 317 316 315 317 321 327 332 335 335 335 335 334 334 333 333 333 333 328 325 327 328 327 325 324 325 325 322 323 323 319 314 310 309 311 312 312
320 321 320 320 319 319 318 318 318 316 317 316 316 317 316 316 316 317 317 318 319 319 319 319 320 319 320 319 318 317 320 323 317 315 316 313 313 313 313 314 314 314 314 315 315 316 316 316 316 316 315 314 315 318 325 331 333 334 334 335 334 335 334 334 334 333 330 326 326 328 329 327 325 325 325 324 323 323 320 317 312 305 304 305 304
321 320 319 319 319 318 318 318 317 317 316 315 316 316 316 316 315 316 316 317 317 318 317 318 319 319 319 319 319 318 317 322 319 315 316 314 313 314 313 314 314 314 314 314 315 314 315 315 315 315 315 313 314 317 322 329 332 333 334 334 335 335 334 335 334 334 332 326 325 328 328 328 327 326 326 324 323 321 321 318 314 307 303 303 303
321 320 319 319 318 318 318 317 318 317 316 315 316 316 317 317 315 315 315 315 315 315 315 315 317 317 318 317 318 320 317 320 320 315 316 315 313 314 313 314 314 314 314 314 314 314 314 314 314 314 314 313 313 316 320 327 331 333 333 334 335 334 334 334 334 334 332 325 324 327 327 328 328 327 326 324 321 319 318 318 315 308 304 303 303
321 321 319 319 318 318 318 318 318 318 317 316 315 315 317 317 315 314 314 314 313 313 313 313 314 315 316 316 318 322 319 318 321 317 316 316 313 313 314 314 314 313 314 314 314 314 313 313 313 313 313 312 312 315 318 324 329 332 333 334 335 334 334 333 333 333 332 328 325 325 326 328 328 328 327 324 322 320 318 317 315 309 303 303 303
321 320 319 319 318 318 319 319 319 319 318 317 316 315 317 318 317 314 313 311 311 311 311 311 311 312 313 314 317 324 323 319 320 319 316 316 315 313 314 314 313 314 313 314 314 314 314 313 313 313 312 312 312 314 317 321 326 330 331 333 334 334 333 332 332 332 333 331 327 326 327 328 329 329 328 327 324 322 320 317 315 310 304 303 303
321 320 320 319 319 319 319 319 319 319 319 318 317 316 317 318 318 316 313 311 310 310 310 310 310 310 311 312 318 325 326 320 319 320 317 317 317 314 313 314 313 314 314 313 314 314 314 313 313 313 313 312 312 314 317 319 323 328 331 333 334 334 333 332 332 333 334 332 327 327 327 328 330 330 329 328 326 324 322 318 316 311 304 303 303
320 320 320 320 319 319 319 320 319 320 320 319 317 316 317 318 318 317 315 312 311 310 310 310 309 310 310 310 317 325 326 322 318 319 319 317 318 317 314 314 314 314 314 313 313 314 315 314 314 314 313 313 312 313 315 317 320 326 329 332 333 334 333 332 332 333 334 332 328 328 328 329 329 329 329 329 327 325 322 318 316 311 304 303 303
321 320 321 321 320 320 320 320 320 320 320 319 317 316 317 316 316 316 315 314 311 311 310 311 310 310 311 309 314 323 325 322 318 318 320 318 318 320 316 314 313 314 314 313 313 313 315 315 314 314 314 314 313 312 314 316 318 323 327 330 333 333 334 333 332 332 333 332 329 328 328 329 328 328 329 328 327 325 322 319 316 312 305 303 303
322 322 322 322 320 320 320 320 320 320 320 319 317 316 317 316 315 315 315 314 312 310 310 311 311 311 312 311 314 321 324 323 318 317 320 320 319 321 320 317 314 314 313 313 313 313 314 315 315 315 315 315 314 312 313 315 317 322 326 330 331 331 332 332 333 332 331 331 329 328 328 327 327 328 328 327 327 325 322 319 316 312 305 303 303
328 325 323 322 321 320 320 320 320 320 319 319 318 317 317 316 315 315 314 313 311 310 310 310 311 311 312 313 315 319 322 321 319 317 319 321 321 322 323 321 316 314 313 313 313 313 313 315 316 315 315 316 315 313 313 314 317 320 324 327 328 328 330 331 332 331 331 331 329 328 327 326 326 327 328 327 326 324 322 319 316 311 305 303 303
336 331 326 323 321 321 320 320 320 320 320 319 319 318 317 317 316 316 314 312 311 310 310 310 310 311 312 313 314 317 319 319 318 317 318 321 323 324 324 323 319 315 313 313 313 313 313 314 315 316 316 316 315 314 313 314 317 319 322 326 327 328 329 330 330 331 331 331 329 327 325 325 325 325 326 326 325 323 321 319 316 310 304 303 303
341 338 331 324 323 322 320 321 321 321 321 320 320 319 318 318 317 316 315 312 311 310 310 310 310 311 312 313 313 315 317 317 318 317 318 320 323 324 324 323 320 317 314 313 313 313 313 313 314 315 316 316 315 314 314 316 318 320 322 325 328 328 329 329 329 330 331 331 329 326 324 323 323 324 325 324 323 323 321 319 316 310 303 303 303
343 340 334 327 324 323 321 321 321 321 321 320 320 320 320 319 318 317 316 314 311 311 310 310 310 311 312 313 313 315 317 317 318 317 318 320 322 323 323 322 321 318 315 313 313 313 313 313 313 314 314 315 314 314 314 317 319 322 324 325 327 328 329 329 329 330 330 330 329 325 322 323 324 325 324 323 323 322 321 319 315 308 303 303 303
344 340 335 328 324 322 321 321 321 321 321 320 320 320 321 321 320 318 317 315 312 311 310 310 310 310 311 312 313 314 316 317 318 319 319 320 321 322 322 321 321 319 315 313 313 313 313 313 313 313 313 313 313 313 314 317 322 326 327 327 328 328 329 329 329 330 330 330 329 324 323 325 325 324 323 323 322 322 320 318 314 306 303 303 303
344 340 334 328 325 322 321 321 321 321 321 320 320 321 322 321 322 321 319 316 313 311 311 310 310 310 311 312 312 314 315 318 319 319 319 319 320 320 320 320 320 319 315 313 313 313 313 313 313 313 312 313 312 315 320 322 327 331 331 330 330 329 330 330 330 331 330 330 329 325 325 326 326 324 322 322 321 320 319 316 311 304 303 303 303
344 340 334 327 324 323 322 322 322 322 321 321 321 321 322 322 322 322 321 319 315 312 311 310 310 310 311 312 314 316 318 320 321 320 319 319 319 319 320 319 319 317 315 314 313 313 313 313 313 313 313 312 313 322 328 329 330 331 332 331 330 330 330 330 330 331 329 329 329 326 326 327 326 325 323 321 319 319 318 313 307 303 303 303 302
342 340 335 328 323 321 322 321 322 322 322 323 322 322 321 321 322 323 323 320 317 313 312 310 310 310 310 313 316 318 321 323 325 325 322 318 318 318 319 319 317 316 314 313 313 313 313 313 313 313 313 311 316 327 331 330 330 330 331 331 330 330 329 328 329 330 329 329 329 328 328 328 327 326 324 321 319 317 316 310 305 303 303 303 302
341 340 336 332 325 321 320 320 321 321 321 322 323 323 322 322 322 322 324 322 319 316 313 311 310 310 310 312 315 317 321 323 324 326 325 322 321 319 319 318 317 315 314 314 313 313 313 313 313 313 313 311 316 327 330 330 330 329 330 330 330 330 328 329 329 330 330 329 330 329 329 329 328 326 324 322 319 316 313 307 303 303 302 302 302
340 338 337 335 331 325 321 319 319 320 320 320 322 323 323 323 323 323 323 324 322 319 317 314 312 310 309 310 313 314 317 319 320 322 324 325 324 323 322 319 317 315 314 314 313 314 313 313 313 312 314 315 318 325 328 329 329 328 329 330 329 329 329 329 329 329 330 330 330 330 330 329 327 324 321 321 318 314 309 304 303 303 302 302 302
339 336 336 337 335 332 326 322 320 320 319 319 320 322 324 325 324 323 324 325 323 323 323 321 319 314 309 309 310 312 313 315 317 318 320 323 323 325 325 320 317 315 314 314 313 314 313 313 313 312 316 324 327 327 328 329 329 329 329 329 329 329 329 329 328 329 330 330 330 331 330 329 326 321 319 319 316 311 305 303 303 302 302 302 302
336 333 336 339 338 336 332 327 325 323 322 321 321 321 325 328 327 325 325 325 326 327 328 329 328 320 312 312 311 310 310 313 318 318 319 323 323 325 326 323 320 315 314 314 313 313 313 313 312 312 321 329 330 330 330 330 329 329 329 329 329 329 330 329 329 330 330 330 331 331 330 328 325 318 315 314 310 306 304 303 303 302 302 302 302
332 331 335 337 334 334 334 332 331 330 327 325 324 323 326 332 332 330 327 327 329 331 332 333 333 324 316 317 317 313 310 314 321 321 322 324 323 325 327 326 323 320 320 318 315 314 312 313 313 318 326 329 328 329 329 329 329 329 329 329 330 330 330 330 330 331 330 331 331 331 329 327 325 317 312 312 308 304 303 303 302 302 302 302 302
330 330 332 331 329 331 333 333 333 334 333 330 329 329 329 333 337 336 331 330 333 334 334 335 335 329 323 324 325 322 317 317 322 323 323 323 323 325 327 326 326 326 328 326 323 319 316 317 321 325 329 328 327 328 328 329 329 329 329 329 330 330 330 331 331 331 330 331 331 330 328 327 326 321 317 317 316 309 303 302 302 303 303 303 302
330 329 330 328 327 330 331 332 333 335 337 335 335 336 335 335 338 339 334 332 337 337 337 337 335 332 331 331 331 329 326 322 322 324 323 321 322 324 326 325 326 328 329 330 329 325 322 324 328 329 329 329 328 329 329 330 329 330 330 330 330 330 331 331 331 331 330 331 331 329 328 327 326 324 322 322 322 316 307 303 303 303 304 304 303
330 329 329 328 327 329 330 332 333 334 337 338 339 339 339 338 339 341 337 336 339 340 338 337 335 334 334 333 333 332 330 325 323 325 322 320 322 322 323 324 324 327 328 330 330 329 328 329 330 331 330 331 331 331 331 330 330 330 330 330 331 331 331 332 331 331 330 330 330 329 328 327 326 325 324 323 324 321 312 304 303 305 305 304 302
329 329 329 329 328 329 329 331 333 334 336 337 339 340 340 341 341 341 340 338 340 341 340 337 335 336 336 335 334 333 332 327 322 325 323 321 324 322 321 322 324 329 329 329 329 330 333 332 331 332 332 332 332 332 331 330 331 331 331 331 331 332 332 332 331 330 331 331 330 328 327 327 327 326 325 324 324 323 316 306 304 307 307 305 302
330 329 329 329 329 328 328 330 331 332 334 336 338 340 341 341 341 341 340 340 340 341 340 339 337 337 338 336 334 334 333 330 324 323 322 320 322 321 319 321 323 329 330 330 329 329 333 334 333 334 333 333 333 332 332 331 332 332 332 332 332 332 333 332 331 331 331 331 330 328 327 327 327 326 325 324 324 325 321 310 305 308 310 308 304
330 329 329 328 328 328 329 330 331 332 334 336 338 339 341 341 342 341 341 341 341 341 340 340 338 337 338 337 335 334 334 333 325 322 322 319 321 321 320 320 322 327 330 330 328 328 332 334 334 334 333 333 333 332 332 332 332 332 332 332 332 332 332 332 331 332 331 330 330 328 327 327 327 326 325 325 324 324 322 314 308 309 310 310 306
329 329 329 328 329 328 328 330 331 332 331 332 336 339 342 342 341 342 342 343 342 342 341 340 340 338 338 336 336 335 334 334 328 321 321 319 320 321 320 319 320 323 325 325 324 324 329 332 333 334 333 333 333 333 332 332 332 333 333 333 333 332 332 332 332 331 331 330 329 328 327 327 327 326 325 324 324 324 322 316 311 311 310 310 309
329 329 329 327 328 328 328 328 329 330 328 328 335 339 342 342 342 342 343 343 342 342 341 341 341 339 338 336 335 335 334 335 328 320 319 317 318 321 320 320 320 320 319 322 323 322 323 326 329 332 334 333 332 332 332 332 332 333 334 333 333 333 332 332 331 331 331 330 329 328 327 327 326 326 325 325 324 324 323 317 313 313 311 310 310
329 328 329 327 328 328 327 327 326 327 327 328 334 339 342 342 342 341 342 342 342 342 342 342 341 340 339 337 336 335 334 334 327 318 317 315 316 320 321 321 322 322 322 324 326 323 321 322 323 327 331 333 331 329 330 332 333 334 334 334 334 333 332 332 331 331 331 330 329 328 328 327 326 326 326 325 324 324 323 319 316 315 313 310 309
329 328 328 327 328 329 327 326 326 326 326 326 330 336 339 342 341 340 340 341 341 342 342 342 341 341 339 338 337 336 335 333 324 316 316 315 315 319 321 323 324 324 325 327 328 327 326 325 325 325 327 329 329 328 329 331 333 334 334 334 334 333 332 331 331 331 331 330 330 329 328 327 327 326 326 325 324 324 323 320 319 317 315 311 309
330 328 327 328 329 330 327 327 326 325 326 326 328 332 335 339 341 340 339 340 341 341 341 341 341 341 339 338 338 337 334 331 322 315 314 315 315 317 320 324 327 327 327 330 331 330 331 331 331 330 329 329 330 331 332 332 333 334 334 334 333 332 332 331 331 331 331 331 330 330 329 328 326 326 326 325 324 323 322 320 319 319 316 312 310
331 329 328 329 330 330 328 327 327 326 326 326 326 328 333 339 342 340 340 340 340 340 341 341 341 340 339 338 337 336 334 330 323 315 311 312 314 316 319 324 327 329 330 332 333 332 333 334 333 334 333 333 334 333 334 334 333 333 333 333 333 332 332 331 331 331 331 331 330 330 330 328 327 326 325 325 323 323 321 320 319 319 317 314 312
331 330 329 330 331 329 328 328 329 327 326 326 326 328 334 340 342 341 340 341 341 341 341 340 339 338 338 337 335 334 333 330 326 320 312 309 313 315 317 322 327 331 334 334 334 333 333 334 333 333 333 334 334 334 333 333 333 332 332 333 333 332 331 331 331 331 331 331 331 330 330 329 328 327 325 324 324 323 322 321 320 319 318 316 314
333 332 331 330 330 330 329 329 330 330 328 327 327 329 334 338 340 341 340 341 341 340 339 337 337 337 338 338 334 333 335 332 329 326 317 309 311 314 316 320 325 329 334 335 334 334 334 334 333 333 333 333 333 333 333 332 332 332 332 332 332 331 331 331 331 331 331 331 331 331 330 329 328 327 325 325 324 324 323 322 321 319 318 316 315
334 333 333 331 330 331 330 330 330 331 330 329 330 331 333 337 339 339 339 339 339 338 337 335 336 337 338 338 335 334 336 334 331 329 324 314 309 313 316 319 322 326 331 335 335 334 334 334 334 333 333 333 333 333 333 332 332 332 332 333 333 332 331 331 331 329 329 329 330 330 330 329 328 327 326 325 325 324 324 323 322 320 319 317 315
334 333 335 333 331 331 332 332 331 331 331 331 333 334 333 335 336 337 338 338 336 335 335 334 336 338 339 338 336 335 337 336 333 332 330 322 312 311 315 317 320 323 328 332 333 334 335 334 333 333 332 332 332 332 332 332 332 332 332 332 332 332 331 331 331 329 329 329 329 329 329 329 328 327 326 325 325 325 324 324 323 321 320 319 316
336 335 334 333 331 332 333 334 333 332 332 332 334 334 333 333 334 336 337 336 336 335 335 336 336 337 338 337 336 336 337 337 335 333 332 329 320 312 312 316 318 319 323 328 331 332 334 333 332 332 332 331 332 332 332 332 332 332 332 332 332 332 332 332 331 330 330 329 329 328 328 328 328 327 326 325 325 325 325 325 324 322 321 320 318
337 336 335 334 332 332 335 336 335 335 334 333 334 334 332 332 334 336 335 334 335 335 336 337 336 337 338 337 336 336 336 337 336 334 333 333 329 320 314 314 315 315 318 325 330 331 332 332 332 332 331 331 331 332 332 332 333 333 332 332 332 332 332 332 331 331 330 330 329 329 328 328 327 327 326 326 326 326 325 325 324 323 321 321 319
338 338 338 337 334 334 336 336 336 336 336 334 334 333 332 332 333 334 333 333 334 335 335 336 336 336 337 337 336 335 336 337 336 336 334 334 333 329 321 315 314 315 317 323 328 329 330 330 331 332 332 331 331 332 332 332 333 333 333 333 332 332 332 331 331 330 330 330 329 329 329 328 328 328 328 327 327 327 326 325 324 323 322 320 319
Wind_Speed
30 27 26 26 25 24 22 22 21 21 21 21 21 21 21 21 21 20 20 20 20 21 22 22 22 23 24 24 23 23 23 23 24 23 23 22 22 22 21 20 19 20 20 19 18 18 18 19 19 20 21 21 21 19 19 17 17 18 20 22 24 25 24 23 22 21 20 20 19 17 16 15 17 20 21 21 20 18 18 18 19 19 19 18 18
34 29 27 26 26 24 23 22 21 21 21 21 21 21 21 21 21 20 20 20 20 21 21 21 21 22 23 23 23 23 23 23 23 23 23 22 22 22 20 19 19 19 19 18 18 18 17 18 19 19 20 20 20 19 18 18 17 17 17 19 21 22 23 22 22 20 19 18 18 17 16 17 19 20 20 20 20 19 18 17 18 18 18 16 16
35 31 27 27 26 24 23 23 22 21 21 21 21 21 21 21 21 21 20 20 20 20 21 21 21 20 21 22 23 22 22 23 23 23 22 22 22 21 20 19 19 19 18 17 17 17 17 17 18 18 19 19 20 19 18 17 17 17 17 17 18 19 19 19 20 20 18 17 17 17 18 18 19 18 17 16 16 17 17 16 16 17 16 15 15
34 31 29 27 27 25 24 23 22 22 21 21 21 21 21 21 21 21 21 20 20 20 20 20 20 20 20 21 22 22 22 22 23 22 22 22 22 21 20 19 18 18 18 17 16 16 17 17 17 17 18 18 19 18 17 16 16 16 17 17 16 16 15 15 16 17 18 16 15 15 16 17 18 17 15 14 14 14 14 14 14 15 15 15 15
33 32 30 28 27 25 24 23 23 22 21 21 21 21 21 21 21 21 21 20 20 20 20 20 21 21 20 20 21 22 22 22 22 22 22 22 21 21 20 19 18 18 17 16 16 16 17 16 16 17 17 18 18 17 17 15 15 14 14 15 15 14 12 11 11 14 16 16 15 14 13 15 16 16 15 14 13 13 12 12 14 14 14 15 14
33 32 30 29 28 26 25 24 23 22 22 21 21 21 20 20 20 20 21 21 20 20 20 20 20 21 21 20 20 21 22 22 22 22 22 21 21 21 20 18 18 17 17 16 16 16 16 16 15 16 16 17 17 16 15 15 14 12 13 14 14 12 10 9 10 12 14 15 16 15 13 13 14 14 13 13 12 12 11 11 13 14 14 14 13
33 32 31 29 28 27 26 24 24 23 22 21 21 20 20 20 20 20 20 20 20 20 20 19 19 20 20 20 20 20 21 21 22 22 22 21 21 21 20 18 17 17 16 16 15 15 16 15 15 15 15 15 15 15 14 13 12 11 12 13 12 10 9 9 10 12 13 15 16 14 12 12 13 13 11 11 11 11 11 11 13 13 13 13 13
33 32 30 29 28 27 26 25 24 23 22 21 21 20 20 19 19 19 20 20 20 20 19 19 19 19 19 20 20 20 20 21 22 22 22 22 21 20 20 18 17 16 16 15 14 14 15 15 14 14 14 14 14 13 13 12 10 10 10 11 10 9 8 7 9 11 12 14 15 14 12 12 13 12 10 9 11 12 12 13 13 12 12 13 12
32 31 30 28 28 27 26 25 24 23 22 21 21 20 20 20 19 19 19 19 19 19 19 18 18 18 18 19 20 21 20 21 22 22 22 22 21 20 20 18 17 16 15 14 14 13 13 13 13 13 13 13 12 12 12 11 10 9 8 8 9 9 8 7 8 10 11 13 14 13 11 12 13 12 10 9 11 13 14 14 13 12 12 12 12
32 30 30 28 27 26 25 25 24 23 22 21 21 20 20 20 19 19 19 18 18 18 18 18 18 18 17 17 19 21 21 21 22 22 22 22 21 20 20 18 17 16 15 14 13 12 12 12 12 12 12 12 11 10 10 10 9 8 7 7 7 7 7 7 8 9 10 12 13 11 11 12 13 12 10 10 12 12 13 15 14 13 12 11 11
32 30 29 28 27 26 25 24 23 23 21 21 21 20 20 19 19 19 19 18 18 17 18 18 17 17 17 16 17 20 22 22 23 23 23 22 21 20 20 19 17 16 15 14 13 12 11 11 11 11 11 11 10 9 9 9 8 8 8 7 5 5 5 5 6 8 9 11 11 10 9 10 12 12 10 9 11 12 12 13 14 14 13 12 11
31 30 29 27 26 25 24 24 23 22 21 21 20 20 19 19 19 18 18 17 17 17 17 17 17 16 16 16 16 18 21 23 23 24 23 23 22 21 20 19 17 16 15 14 13 12 11 10 10 10 10 10 9 8 8 8 7 7 7 7 5 4 3 4 5 7 8 9 10 9 7 9 12 11 9 9 10 11 12 12 14 14 13 12 11
31 29 29 27 27 25 24 23 22 22 21 20 19 19 19 19 18 18 17 17 16 16 16 17 16 16 16 16 16 17 20 23 24 24 24 23 23 21 20 19 18 16 15 14 13 12 11 10 9 9 9 9 8 7 7 7 6 6 6 5 5 4 3 3 5 6 6 8 8 8 7 8 11 9 8 8 10 11 11 12 13 13 12 12 11
30 30 29 28 27 25 24 23 22 22 21 20 19 19 19 18 18 17 17 16 16 15 15 15 16 16 16 16 17 17 19 23 24 24 24 23 23 22 21 20 18 16 15 14 12 11 11 10 9 9 9 8 7 7 7 6 6 5 5 4 4 4 4 3 4 4 5 6 7 7 7 7 9 8 7 7 9 11 11 12 13 13 12 11 10
29 30 29 28 27 26 24 23 22 21 21 20 19 19 18 18 17 17 16 16 15 14 14 14 15 16 16 16 17 17 18 21 24 24 24 23 23 23 22 21 19 17 15 14 12 11 10 10 9 8 8 8 7 6 6 6 5 5 4 3 2 3 3 3 3 3 4 4 6 7 6 6 7 7 6 7 8 10 10 12 13 12 11 10 9
29 29 29 28 27 26 25 23 22 21 21 19 18 18 18 17 17 16 15 15 15 14 14 14 15 15 16 17 17 17 17 19 22 24 24 23 23 23 22 21 19 17 16 14 13 11 10 10 9 8 8 7 6 5 5 5 5 4 3 3 2 2 2 2 2 3 3 3 5 6 5 6 7 6 5 5 8 9 9 12 13 11 10 9 9
30 29 29 29 27 26 25 24 23 21 20 19 18 18 18 17 16 16 15 14 14 14 14 14 14 15 16 17 17 17 17 18 21 24 24 24 23 22 22 21 20 18 16 15 13 12 10 10 9 8 7 7 6 4 4 4 4 4 3 2 1 2 2 2 3 3 2 3 5 5 5 5 6 5 4 5 7 8 9 13 13 11 9 9 9
30 29 29 28 28 27 26 25 23 22 21 20 19 18 17 17 16 15 14 13 13 13 14 13 14 14 15 17 18 17 17 18 20 23 24 24 23 21 21 21 20 19 17 15 14 12 11 10 9 8 7 6 5 4 3 2 3 3 2 1 1 1 2 2 3 2 2 3 4 4 4 4 4 4 4 4 6 8 10 13 12 11 9 9 9
28 29 29 28 28 27 26 25 24 22 22 21 20 19 18 17 16 16 14 13 12 12 13 13 13 13 13 16 18 17 16 16 18 22 23 23 22 21 20 20 20 19 18 16 14 13 12 11 10 9 7 6 5 3 3 2 2 3 2 1 0 1 1 2 2 1 1 2 3 3 3 3 4 4 3 4 6 8 10 12 12 11 9 8 9
23 26 29 29 28 27 27 25 25 23 22 22 20 20 19 17 16 15 14 13 12 11 12 13 13 13 13 15 18 17 16 16 17 20 22 22 22 21 20 20 20 20 18 17 15 14 13 12 10 9 8 6 5 3 3 2 2 2 1 1 1 0 1 2 1 2 2 1 2 2 2 3 3 3 3 5 7 8 10 11 12 10 8 8 8
20 23 27 30 29 27 27 26 25 24 23 22 20 20 19 18 17 15 15 14 13 12 13 13 13 14 14 15 17 17 16 17 18 19 21 21 21 21 20 20 20 20 19 17 16 15 14 12 11 10 9 7 5 4 3 3 2 1 1 2 2 1 1 1 1 2 2 1 1 1 2 2 3 3 4 5 6 7 9 11 11 9 7 7 7
19 21 24 30 30 28 27 26 26 24 23 22 20 20 19 19 18 17 16 16 15 14 14 14 14 15 15 16 17 17 16 17 18 19 20 20 21 21 20 20 20 20 19 17 16 15 14 13 12 10 9 7 6 5 4 4 2 2 1 3 3 2 2 1 1 1 1 1 1 1 1 2 4 4 4 5 6 8 10 10 10 8 6 6 7
21 22 24 29 30 29 28 26 26 24 23 22 20 19 19 19 19 18 18 17 17 16 16 15 16 16 17 17 17 17 16 17 17 18 19 20 20 20 20 20 20 20 20 18 16 15 15 14 12 11 9 8 6 5 5 5 3 3 2 3 4 4 4 2 1 1 1 1 2 1 2 3 4 4 5 7 8 9 10 10 9 7 6 6 6
21 21 23 28 30 29 28 26 25 24 23 21 21 20 20 19 19 19 18 18 18 17 17 16 16 16 17 18 18 18 17 17 17 17 19 20 20 20 20 20 21 21 20 19 17 16 15 14 13 11 9 8 6 6 6 6 4 3 2 5 5 5 4 3 2 2 2 2 2 2 2 4 5 6 7 9 9 10 10 9 8 6 5 5 5
20 19 21 27 31 30 28 27 25 24 24 22 22 21 21 20 20 20 19 19 18 17 17 16 16 16 17 17 17 17 18 18 17 18 19 20 21 21 21 21 21 22 21 20 18 17 15 14 13 11 9 8 6 6 6 6 5 3 2 5 6 5 4 4 3 3 3 3 3 3 3 5 7 8 9 10 11 11 9 8 6 5 5 5 5
20 18 19 24 29 30 28 28 26 25 24 23 23 22 22 21 20 20 19 19 18 18 17 16 16 15 16 17 17 18 18 18 17 18 18 19 21 20 20 20 21 21 21 20 19 17 16 15 14 11 10 8 7 6 6 7 6 3 2 5 6 5 4 4 4 4 4 3 4 5 4 5 7 9 10 10 11 11 9 7 5 4 4 4 4
19 18 18 20 25 29 28 27 26 25 25 24 23 22 22 21 20 20 19 19 18 18 18 17 16 16 16 17 18 18 18 17 17 18 17 18 20 20 20 20 21 21 22 21 20 18 17 16 14 12 10 9 8 7 7 7 5 3 2 4 5 4 4 5 5 5 5 4 5 5 5 6 7 9 10 10 11 10 8 6 4 4 4 4 4
20 20 19 19 21 24 26 26 26 26 25 25 24 23 23 22 21 20 19 18 18 19 18 17 16 16 17 18 19 17 17 16 16 17 17 16 16 17 18 19 21 22 22 22 21 19 18 16 14 12 11 10 10 9 8 7 6 5 4 5 5 5 6 7 7 5 5 5 5 5 6 6 8 10 10 10 9 8 7 5 4 4 4 4 4
20 20 20 18 17 18 21 23 25 26 25 25 24 24 23 23 22 21 19 19 19 18 17 17 17 17 18 18 19 17 17 16 15 16 16 14 12 12 13 16 20 22 23 23 22 20 18 17 14 13 11 11 11 11 10 9 8 8 7 7 7 6 7 8 8 5 5 5 5 6 6 7 8 10 10 9 8 6 6 5 4 4 4 4 4
19 17 17 17 16 15 17 19 21 22 24 25 25 25 24 23 23 21 20 19 19 18 17 17 16 18 19 19 19 18 17 16 15 16 16 13 10 10 10 11 15 19 22 23 22 20 18 17 14 14 13 12 11 10 10 10 10 11 11 10 9 8 7 8 8 6 5 5 6 7 7 7 8 10 8 6 5 5 5 5 3 3 3 3 4
17 14 16 16 13 13 15 16 18 19 20 23 23 24 24 22 22 21 20 20 19 18 18 17 16 18 20 19 19 18 17 17 16 16 15 12 10 11 10 9 10 13 16 18 20 20 19 16 14 15 14 13 11 9 9 10 11 13 14 13 10 8 8 9 8 7 6 6 7 7 6 6 8 8 6 4 4 4 4 4 4 3 3 3 3
16 12 15 13 8 9 13 15 17 18 18 19 20 22 24 22 21 21 20 20 19 19 19 18 17 19 21 20 18 17 17 17 18 17 14 12 11 12 11 9 9 10 11 12 15 17 18 16 15 17 16 15 13 11 10 9 10 12 14 14 12 9 9 10 9 8 7 7 7 7 6 5 6 6 4 5 5 4 4 5 4 4 4 4 4
17 12 12 10 8 10 11 15 17 18 18 18 18 19 22 23 22 20 19 20 20 19 20 19 17 19 20 19 17 16 17 18 19 17 14 12 12 13 12 11 11 11 11 11 13 14 15 16 17 18 18 16 15 13 11 10 9 11 13 13 12 10 9 10 11 9 8 8 8 7 6 6 5 4 4 6 7 6 5 5 5 5 4 4 4
20 18 17 18 18 15 13 16 18 19 19 19 18 17 19 22 22 20 19 20 20 20 20 20 18 18 19 18 16 16 16 19 19 16 14 13 13 14 14 12 12 12 11 11 11 12 14 17 18 17 17 16 13 12 12 12 10 11 13 13 11 10 10 11 11 10 8 8 8 8 8 7 6 5 6 7 9 8 6 5 5 5 5 5 5
22 22 20 23 21 14 12 16 18 20 21 20 19 16 17 21 22 20 20 21 20 20 20 20 20 19 18 18 17 16 16 18 20 17 16 15 14 15 14 13 12 12 12 11 10 11 14 16 17 16 15 13 11 12 13 12 10 11 13 12 11 11 11 11 11 10 9 8 9 9 9 8 7 7 7 8 10 9 7 5 5 6 6 6 6
24 21 19 19 18 14 14 17 19 20 21 21 20 17 17 20 23 21 21 21 20 20 20 20 21 20 19 19 19 18 16 17 20 19 19 18 16 16 15 13 13 12 12 12 12 13 14 15 15 15 14 14 13 13 13 12 10 11 12 11 11 11 12 11 12 12 11 10 10 10 10 9 8 8 8 9 11 10 9 7 6 6 6 6 6
25 23 21 20 20 22 24 23 20 19 20 21 21 20 19 20 24 24 22 22 21 21 21 22 23 22 21 20 21 20 17 16 19 22 21 20 18 17 16 14 14 14 14 14 14 15 16 17 16 16 17 16 15 15 13 12 11 11 12 11 12 12 12 12 12 13 13 12 11 11 10 10 10 10 10 11 12 12 10 8 6 7 7 7 7
26 26 27 25 24 24 24 22 21 19 17 18 21 22 22 22 25 26 25 24 23 23 23 24 24 23 22 22 23 22 20 18 20 24 23 21 19 18 17 16 16 18 17 17 17 17 19 20 19 20 21 19 17 17 16 14 12 12 12 12 13 13 13 12 13 14 14 13 12 11 10 11 12 12 12 12 13 13 11 9 8 8 8 8 8
29 31 32 28 27 26 21 19 19 18 14 15 20 24 24 25 26 28 27 26 26 26 26 26 26 25 25 24 24 24 23 21 22 26 25 22 21 20 19 18 18 20 20 20 20 20 21 22 22 22 23 22 19 18 18 17 15 14 13 13 13 13 12 13 14 15 15 14 12 11 11 12 13 14 14 14 15 15 12 10 10 9 8 9 9
33 35 35 31 31 31 25 21 19 15 14 18 24 27 28 29 29 30 31 31 30 29 29 29 28 27 27 26 25 25 26 24 25 28 26 23 22 21 20 20 19 20 21 21 21 21 21 23 23 24 25 24 21 20 19 19 17 15 14 14 13 13 13 15 16 16 15 15 14 13 13 13 14 14 15 16 16 15 12 11 10 8 8 9 9
36 36 37 36 35 34 30 30 29 21 17 21 25 30 32 33 34 34 35 35 34 33 31 31 30 29 29 29 29 28 28 27 27 30 28 24 23 22 22 22 21 21 21 20 19 19 20 21 22 24 26 26 24 22 21 20 18 17 16 15 15 15 16 18 19 18 17 17 17 15 14 14 15 15 16 17 17 15 13 11 10 9 9 10 11
39 38 40 38 35 34 35 38 39 34 28 24 25 29 32 34 35 36 37 37 36 36 35 33 32 31 30 31 32 31 30 28 30 32 29 25 25 24 24 23 23 22 21 20 19 19 20 20 21 23 25 26 25 23 22 21 20 19 18 17 16 17 18 20 20 20 20 20 19 18 16 16 16 16 17 17 17 15 13 11 10 10 11 12 12
41 40 40 39 36 35 37 40 42 41 37 31 26 26 29 33 36 36 37 38 38 38 37 34 32 31 31 32 33 33 31 29 31 33 31 28 26 26 26 25 24 23 22 21 20 21 21 21 22 22 23 24 24 24 23 22 21 20 18 17 18 19 20 22 23 22 21 22 21 20 19 18 17 17 18 18 17 15 12 10 10 11 12 13 12
44 43 41 41 39 36 37 40 42 41 39 35 29 25 27 33 38 38 37 38 39 38 37 35 33 33 32 32 33 34 31 29 31 33 32 30 28 27 27 26 25 24 23 23 22 22 22 22 22 22 22 23 23 23 23 22 22 21 19 18 17 18 21 23 25 25 24 23 23 23 21 20 20 19 19 18 16 14 12 11 10 11 12 12 12
47 46 44 44 41 39 38 40 42 42 38 34 29 27 31 37 41 42 40 39 39 39 39 38 37 37 36 34 33 33 31 29 30 30 31 32 31 29 28 27 26 25 24 24 23 23 22 22 22 23 23 22 22 22 22 22 22 22 21 19 15 16 21 22 22 24 26 26 26 25 24 23 22 22 21 19 17 14 13 13 12 12 13 12 12
50 49 47 45 44 41 41 40 41 41 37 32 29 30 34 38 42 44 44 43 43 44 43 43 41 40 38 35 33 32 30 29 29 29 30 32 33 31 30 29 27 26 26 25 24 23 23 23 22 23 23 22 21 21 22 22 22 22 24 23 18 15 17 17 19 20 22 27 28 27 27 25 24 23 22 20 18 16 15 14 14 15 14 13 12
51 51 50 47 46 44 43 42 41 41 39 35 35 36 37 40 41 42 43 44 45 46 45 43 41 39 38 36 34 33 30 29 30 29 29 31 34 34 32 31 29 27 27 27 26 25 24 23 23 23 23 22 21 22 22 22 23 24 25 25 23 20 16 14 16 17 15 21 27 29 29 27 25 24 23 21 18 17 16 16 16 16 16 15 14
53 52 52 50 49 47 46 45 44 43 42 41 42 41 40 41 41 41 42 42 42 43 42 41 39 38 38 37 35 34 32 31 30 29 29 30 33 35 34 33 32 30 29 29 28 26 25 24 23 24 23 23 23 22 22 23 24 24 24 25 25 24 21 16 15 15 14 16 21 26 29 28 27 25 23 20 18 17 17 17 16 16 16 16 15
55 55 54 53 51 50 49 48 47 46 44 45 46 43 40 40 41 42 41 39 40 42 42 40 38 38 39 38 37 36 34 32 31 30 29 29 32 34 35 35 34 33 32 32 30 27 26 25 24 25 24 24 24 23 23 24 25 24 23 24 24 25 24 20 16 16 16 15 16 20 25 27 27 26 23 20 19 18 18 18 18 18 17 15 15
55 57 57 56 54 53 53 51 49 49 48 46 46 44 41 41 42 42 40 38 39 42 43 42 39 38 39 39 39 38 36 34 33 32 31 30 30 32 35 36 35 34 34 34 32 30 28 26 25 25 24 24 24 23 24 24 24 24 23 23 24 25 26 24 22 20 18 17 17 18 19 23 25 24 21 20 19 18 19 20 21 21 20 18 16
57 59 60 59 57 55 55 53 51 50 50 49 47 45 43 43 43 41 39 37 38 41 44 43 40 39 40 40 41 40 37 36 35 34 33 33 31 31 33 35 34 34 35 36 35 33 30 28 26 25 25 25 24 24 24 24 24 24 24 24 24 25 25 26 25 24 22 21 21 20 19 20 22 22 20 19 19 19 20 22 23 23 22 20 19
Wind_Direction
179 175 166 164 165 164 161 160 160 161 158 157 154 153 151 148 147 146 144 143 143 142 141 140 143 146 145 143 139 139 139 139 137 135 134 132 128 123 119 113 109 108 109 107 106 104 102 99 93 89 85 82 82 83 86 87 88 88 84 83 82 81 81 81 81 82 84 87 90 90 89 83 75 71 68 66 68 70 73 73 74 73 71 70 70
170 171 167 163 164 163 162 161 161 162 159 158 155 154 153 151 149 148 148 146 146 145 145 144 144 146 147 146 143 141 140 140 140 138 136 134 129 125 121 115 112 111 111 109 107 105 102 99 95 90 86 83 81 82 86 88 89 91 90 86 83 81 79 78 77 77 78 78 79 80 79 74 71 68 64 60 58 60 66 70 71 73 74 72 72
163 167 167 163 164 164 162 162 161 162 160 158 156 156 155 153 152 151 151 149 150 149 148 148 146 147 148 149 147 144 142 142 142 140 138 136 132 128 124 118 115 113 113 112 110 106 102 99 97 93 89 85 82 83 87 90 91 92 93 92 90 88 85 81 78 76 75 76 75 74 73 71 70 70 68 66 61 57 59 66 70 72 75 74 72
163 163 165 164 164 165 163 162 162 162 161 159 157 156 155 154 154 154 153 152 153 152 152 152 151 150 149 149 150 147 144 144 144 143 141 138 134 131 128 122 118 116 115 114 112 108 102 98 98 97 92 87 83 85 89 94 94 94 94 94 94 93 91 88 84 78 75 78 80 76 74 74 73 73 74 74 72 65 58 61 69 71 72 70 68
164 162 166 164 164 165 164 163 162 163 162 160 158 157 155 155 154 155 155 155 155 155 156 156 157 155 153 151 151 151 147 146 146 146 144 140 137 135 131 126 122 119 117 116 114 109 103 99 97 98 94 90 86 86 91 97 99 99 97 93 92 94 95 94 92 84 75 76 79 77 73 76 76 74 73 75 77 74 64 59 67 70 72 72 66
164 164 166 165 166 166 165 164 164 164 163 161 160 158 156 155 154 156 156 158 158 158 159 159 160 160 158 155 153 152 150 149 148 149 148 143 140 138 135 130 125 122 120 118 116 111 106 101 98 97 95 93 89 89 92 99 104 105 100 93 90 90 96 99 98 87 74 71 73 74 71 76 80 77 72 71 73 75 73 66 65 68 72 77 74
166 166 167 168 167 167 167 165 165 165 164 163 161 160 157 156 155 155 156 158 161 161 161 162 162 162 162 160 157 154 154 152 151 152 151 147 143 141 138 134 129 126 124 122 120 115 110 105 100 97 95 95 93 93 94 100 106 107 103 98 94 88 90 96 99 90 73 67 70 71 69 76 84 82 74 69 70 72 71 67 63 65 70 76 78
169 168 168 169 169 169 169 166 166 166 166 164 162 162 159 158 157 156 156 158 162 164 164 165 165 164 164 164 161 157 157 156 154 154 154 151 146 144 142 138 134 130 128 126 123 118 114 108 103 99 97 96 96 97 98 103 107 105 103 102 100 96 96 93 96 94 75 66 71 72 71 76 84 87 81 75 75 72 65 62 61 63 67 71 76
172 171 170 171 172 170 170 169 168 167 167 165 164 163 161 161 160 158 157 159 162 165 167 168 169 167 167 166 165 160 158 159 157 156 157 155 150 148 145 142 137 133 131 129 127 122 117 112 107 102 99 99 99 100 103 110 114 109 103 101 101 101 105 104 100 97 77 65 71 75 75 76 81 87 85 77 72 67 59 57 57 59 62 66 73
175 172 172 172 173 172 171 170 169 168 168 167 166 164 164 163 163 162 161 163 164 167 170 171 173 171 171 170 168 163 160 160 160 159 159 158 154 152 148 145 141 138 136 135 132 127 121 116 112 106 101 101 103 105 108 116 120 117 111 103 99 98 104 107 104 98 78 66 70 75 78 77 79 83 82 75 68 62 54 51 50 52 54 55 60
176 174 172 172 173 174 173 171 170 170 170 168 168 166 165 165 164 165 164 166 168 170 172 174 176 174 174 173 172 168 164 162 162 162 161 161 159 155 152 148 145 144 141 140 137 132 127 122 117 110 105 103 108 112 116 121 123 120 117 113 100 88 96 104 101 94 75 63 66 73 78 76 77 80 79 69 62 57 49 48 46 45 45 45 46
177 175 172 172 173 174 174 173 172 171 172 169 169 168 166 167 166 166 167 169 172 174 174 175 177 178 178 176 175 172 167 165 165 164 163 163 162 160 156 152 150 149 145 143 141 138 134 128 122 114 108 105 111 118 122 126 126 121 118 117 103 85 101 111 97 90 71 58 64 72 73 74 76 79 78 64 55 51 45 46 43 40 41 42 44
176 176 172 173 173 174 175 173 173 173 173 171 170 169 168 169 168 166 168 171 174 177 177 175 176 179 180 178 175 173 170 167 167 167 166 166 165 164 161 157 154 152 150 148 145 142 139 133 126 117 110 109 113 120 125 129 130 125 122 117 105 93 111 124 101 93 75 59 65 71 69 73 79 82 76 59 50 45 44 46 39 37 39 39 41
177 176 173 174 174 174 175 174 173 174 174 173 172 170 169 170 169 167 168 171 176 179 180 177 176 178 181 179 176 172 171 169 169 169 169 169 168 167 165 163 159 156 155 153 150 146 143 137 129 119 113 112 115 121 125 133 138 136 134 120 103 99 107 116 102 98 85 61 62 69 68 74 82 84 74 60 47 38 42 44 35 34 37 38 38
179 176 175 175 175 174 174 175 174 175 175 173 174 171 170 170 169 169 168 171 176 179 183 181 177 178 181 181 177 173 173 171 170 172 172 171 170 170 168 167 163 161 161 158 155 152 147 141 134 125 116 114 117 125 128 135 146 151 154 139 103 98 92 86 96 110 97 61 59 66 68 75 82 79 71 65 42 34 43 39 31 32 35 36 34
181 178 176 175 176 175 174 176 176 177 176 174 176 172 170 169 169 171 170 173 176 179 183 185 181 180 182 182 178 174 175 174 173 174 176 175 173 173 172 170 167 167 166 163 161 158 154 149 142 132 122 118 122 131 134 134 142 153 160 154 124 84 58 58 84 111 102 57 57 63 66 71 76 69 62 57 30 28 39 32 27 29 32 35 31
182 179 177 177 177 176 176 177 177 177 176 176 177 174 172 170 169 172 173 176 178 179 182 183 182 181 183 184 181 177 176 176 176 176 178 178 176 176 175 172 171 172 172 168 166 165 161 158 152 142 130 123 130 141 142 134 130 142 156 155 138 70 49 57 61 86 100 58 54 60 61 63 71 65 52 41 19 21 25 19 21 24 28 33 27
183 181 179 178 178 178 178 178 177 177 178 179 179 176 175 172 169 172 174 180 182 181 182 181 182 181 181 184 183 181 181 180 177 178 181 182 179 178 177 175 175 176 177 173 171 170 169 167 163 154 144 133 135 149 154 143 127 133 159 177 160 77 58 47 52 82 99 61 54 55 55 53 62 60 49 30 7 10 12 10 13 17 23 27 23
185 185 182 182 181 181 180 179 179 177 180 182 181 177 175 174 171 174 176 182 185 185 186 182 181 179 181 185 182 182 185 183 179 179 182 184 183 182 181 179 179 180 180 179 177 176 176 175 174 168 159 147 141 158 172 169 141 134 162 205 197 69 42 30 44 48 24 47 51 46 43 32 40 43 30 5 352 355 360 3 6 10 17 22 19
188 189 186 186 184 184 182 181 180 179 184 184 181 178 176 176 173 176 178 183 185 186 190 187 182 180 182 183 181 184 187 184 179 178 182 184 186 186 185 183 183 185 183 182 182 182 182 181 181 177 171 162 155 170 189 195 166 143 174 219 231 25 41 53 37 357 349 23 46 36 24 15 22 26 2 344 344 344 350 358 0 4 12 17 15
192 194 193 191 186 187 184 182 182 181 185 185 183 180 177 177 176 179 181 184 185 186 193 191 188 184 184 183 184 186 186 184 179 179 181 184 188 189 189 188 187 188 187 186 186 186 187 187 186 182 178 173 169 183 199 205 184 154 221 262 267 317 37 61 4 347 341 326 34 11 356 2 353 347 340 335 336 334 342 351 355 1 9 12 10
197 197 199 196 188 187 186 186 185 183 185 186 185 182 181 179 179 182 185 186 184 186 193 193 192 191 189 187 189 189 187 186 182 181 182 183 188 190 191 190 190 192 191 190 190 191 192 192 191 187 183 180 182 194 205 207 187 175 231 273 274 302 333 307 297 319 312 262 232 310 332 344 336 330 332 332 327 326 336 345 350 357 4 7 5
201 200 201 198 192 188 188 190 188 185 186 187 187 186 186 184 183 185 187 189 187 187 191 194 194 195 195 191 192 191 188 190 186 184 183 184 188 190 191 192 193 194 194 193 193 195 196 197 196 192 187 184 191 201 208 213 187 174 228 270 279 302 316 301 296 302 308 276 239 272 316 327 329 322 325 325 321 322 332 341 345 352 359 2 0
200 201 202 200 195 191 190 192 191 189 189 190 190 191 190 189 189 188 190 192 190 189 191 195 196 197 198 195 195 192 191 192 190 188 188 188 190 191 192 193 195 196 197 196 195 197 199 201 201 197 191 187 197 208 214 217 188 164 246 273 282 297 307 298 299 296 300 290 248 259 293 312 323 324 323 320 318 322 329 335 341 347 353 359 357
196 197 200 201 197 194 193 193 194 193 194 195 195 195 194 194 195 192 193 195 193 193 193 195 196 199 199 198 196 193 192 192 191 193 193 194 195 196 196 196 197 198 199 199 198 198 200 203 204 201 195 190 197 210 212 206 189 164 250 270 277 289 302 300 296 288 282 274 254 253 277 309 328 331 328 322 320 321 324 331 337 343 348 356 356
191 192 194 200 200 196 194 194 196 197 198 200 199 200 199 199 201 198 196 196 196 196 196 196 197 199 199 200 197 193 193 193 195 196 196 198 199 201 201 201 201 200 200 202 202 201 201 204 205 202 196 194 196 204 201 197 198 180 228 276 280 282 299 304 297 285 273 270 259 259 283 316 332 333 331 328 327 323 322 328 331 336 346 354 356
185 187 189 195 202 202 199 197 198 200 202 204 204 205 205 204 206 204 201 199 199 199 200 199 198 198 199 201 198 195 195 195 198 198 199 201 203 204 205 206 206 204 203 204 205 204 205 206 206 202 196 195 196 198 197 201 214 206 222 276 285 284 300 308 301 282 270 274 269 272 291 313 323 326 327 329 331 325 319 321 323 331 345 353 356
180 180 184 187 197 204 205 204 203 204 206 207 208 211 211 210 209 209 206 203 204 204 204 202 202 202 200 202 201 199 200 200 201 201 201 201 203 207 209 211 210 210 208 207 207 206 208 209 208 204 200 198 198 203 207 211 230 242 241 250 268 279 293 304 303 282 271 278 273 274 282 297 314 321 322 324 328 324 316 310 312 331 347 350 351
185 179 182 184 188 200 208 211 211 209 211 212 211 214 216 215 213 213 209 206 207 207 207 205 206 207 204 203 202 203 205 205 207 206 203 201 203 208 213 215 215 214 213 211 210 208 209 211 209 206 202 196 196 207 216 221 234 253 256 240 244 266 286 300 301 287 279 277 263 260 269 287 312 322 320 318 322 321 311 304 311 334 344 345 345
190 188 191 185 182 194 204 212 215 214 216 216 217 217 219 219 217 215 211 208 206 205 208 206 206 209 206 203 203 205 207 209 210 208 203 200 203 205 206 206 211 215 215 215 212 210 211 209 207 205 199 191 195 210 220 232 242 253 258 242 236 257 282 294 296 289 277 261 245 246 262 289 317 328 325 318 319 320 309 303 316 333 335 339 342
187 193 201 191 186 197 204 211 215 217 219 219 221 222 222 223 221 218 213 210 205 201 206 207 204 206 202 198 199 203 207 208 209 206 196 191 197 198 191 182 192 204 207 210 211 210 210 208 206 201 196 193 202 217 226 243 250 247 245 237 233 250 273 285 290 285 265 243 231 239 260 293 325 341 345 337 328 323 314 309 318 326 328 332 335
180 183 193 191 203 217 214 219 220 218 220 220 223 225 226 224 223 222 216 211 205 200 204 207 203 199 196 195 196 201 205 205 206 206 194 187 194 195 187 172 173 180 180 187 199 205 205 203 200 196 197 201 208 219 230 247 253 241 232 227 232 246 265 278 285 281 265 245 226 234 259 291 331 357 9 2 348 328 320 320 318 317 320 322 324
170 172 188 197 233 251 238 230 227 221 221 224 227 229 229 225 222 224 221 213 206 203 204 207 204 194 193 195 194 199 206 208 207 203 195 192 196 196 190 179 174 174 172 171 181 190 192 192 192 193 199 206 211 217 230 249 257 241 226 224 233 245 258 272 279 277 266 249 230 236 258 284 316 338 343 345 341 331 322 320 314 309 312 312 312
169 177 196 207 220 244 250 234 230 227 223 223 228 231 229 226 223 222 221 213 208 207 204 208 208 196 193 193 191 198 207 213 209 197 194 196 199 203 196 186 184 181 180 179 183 183 180 184 190 196 202 207 214 225 240 255 258 237 224 228 237 244 255 267 273 271 260 243 233 242 260 275 296 316 324 330 331 326 318 313 311 306 307 307 304
177 177 189 199 210 233 250 235 228 229 227 225 229 233 232 229 225 223 221 214 209 210 208 208 211 203 199 198 195 201 208 214 209 196 196 196 199 209 203 192 192 194 191 188 193 191 181 185 196 206 212 218 230 243 250 255 251 232 227 234 240 246 255 261 268 265 250 235 231 243 258 267 283 304 317 325 326 325 318 306 304 302 303 304 300
185 181 179 189 205 224 246 240 227 227 232 234 239 240 240 235 229 226 223 218 212 214 214 210 213 210 207 208 205 208 213 216 211 201 198 196 198 209 208 198 198 206 205 198 202 199 192 198 207 218 229 236 242 245 245 243 239 232 234 241 244 250 256 258 264 259 246 237 234 241 254 265 281 295 305 317 322 323 317 297 293 300 300 298 290
191 189 182 183 196 212 229 231 222 227 235 239 244 242 241 238 232 230 226 222 216 217 220 215 215 215 214 215 213 215 221 223 217 208 201 195 196 205 208 205 206 214 216 213 213 206 202 210 216 225 232 236 240 240 237 233 230 231 236 242 248 253 259 260 258 250 245 241 238 246 259 269 279 287 294 307 316 319 311 292 289 296 294 293 285
196 187 182 185 194 203 213 212 207 215 226 237 245 243 242 239 234 232 229 226 222 222 223 221 220 219 217 217 217 220 225 230 225 214 205 195 194 202 205 206 210 216 218 221 223 215 210 215 218 224 228 231 236 238 237 235 235 237 242 247 252 256 258 257 250 245 246 245 246 255 265 271 276 280 287 301 311 315 310 291 282 285 287 291 287
197 185 180 184 188 187 189 192 197 201 208 233 243 239 238 237 233 231 230 229 227 225 224 223 222 221 221 219 219 222 226 233 231 218 209 197 194 199 202 204 209 214 217 220 224 221 216 216 219 222 226 230 234 238 241 241 241 243 246 249 251 254 251 243 237 240 245 247 251 257 261 268 274 279 288 302 310 310 305 285 272 276 283 290 286
194 185 181 183 182 181 180 185 194 200 205 223 233 231 230 232 230 228 228 229 227 225 223 223 223 222 224 222 220 223 226 233 232 219 211 201 194 197 200 202 207 213 215 215 218 219 217 217 221 222 225 229 233 237 240 241 243 242 241 242 242 241 235 229 228 231 238 244 247 252 257 262 268 277 287 299 303 300 294 280 269 272 283 288 281
190 186 184 185 186 185 181 183 193 205 218 223 225 224 224 225 226 226 226 227 227 224 223 223 224 224 225 225 223 224 228 233 228 217 210 205 198 197 202 203 205 211 213 213 214 216 217 219 222 224 225 229 233 237 237 238 240 237 232 231 233 231 224 223 227 228 233 241 248 251 254 256 262 274 284 293 297 293 289 284 280 281 286 286 275
191 189 188 188 190 190 185 185 191 199 213 228 227 222 223 224 226 228 226 226 226 225 225 224 224 225 226 227 227 227 231 231 223 214 209 207 202 199 202 204 206 211 213 212 213 215 219 219 220 222 224 228 233 237 238 236 236 235 233 228 224 223 222 224 228 232 235 241 247 251 254 257 263 272 280 290 294 292 291 288 288 288 287 285 274
195 194 194 192 194 195 191 190 194 197 207 224 232 227 225 226 228 230 227 225 226 227 228 227 226 227 228 229 229 230 231 225 217 214 210 206 206 202 202 205 207 210 212 211 210 213 218 219 219 220 222 226 231 235 238 238 236 233 228 224 220 217 220 223 225 231 237 242 246 249 254 259 264 271 278 285 290 290 289 284 284 288 287 283 274
199 198 198 196 198 200 196 196 199 202 207 217 228 230 225 224 226 229 229 226 226 227 228 229 229 229 229 229 229 229 228 221 214 215 212 207 208 205 204 207 208 209 212 211 210 211 215 219 220 220 223 226 230 233 235 235 235 229 219 215 215 215 220 225 224 228 234 239 244 247 251 256 260 267 273 278 284 284 282 279 281 287 285 278 270
202 202 202 201 203 204 204 203 204 204 206 212 220 221 219 221 222 223 224 224 225 226 225 227 227 227 226 226 226 225 224 220 214 214 214 210 209 209 207 209 209 209 212 212 212 214 216 219 222 224 225 227 231 236 238 235 233 231 225 219 213 215 227 232 228 229 232 235 241 244 247 251 256 264 269 274 277 276 276 277 279 283 282 277 268
206 206 206 207 208 209 209 211 211 209 209 212 214 213 213 217 219 219 219 220 221 223 224 225 224 222 223 225 222 219 222 223 217 215 216 213 211 211 211 212 212 211 213 215 216 217 218 219 222 226 228 230 234 238 241 238 233 230 229 230 231 235 241 239 231 231 233 234 236 241 244 247 253 260 265 269 273 275 276 276 277 280 281 279 272
211 211 210 210 211 212 212 213 216 215 213 213 212 209 210 214 216 218 220 221 222 224 225 226 224 221 223 224 220 217 221 225 221 218 217 215 212 212 213 215 216 215 215 218 220 219 218 219 222 226 230 233 235 239 241 240 234 230 229 230 235 240 247 246 236 232 232 230 231 235 240 243 247 254 260 265 268 273 276 276 277 279 281 280 275
215 214 213 214 214 214 214 214 216 217 215 214 213 210 210 212 214 217 220 223 226 227 226 225 225 223 223 224 220 217 219 225 225 222 220 217 214 213 214 216 219 219 219 222 225 223 219 219 221 224 228 232 234 239 241 239 238 237 234 231 231 234 239 244 240 234 236 236 231 232 235 239 243 249 255 260 263 267 271 274 275 276 280 281 278
219 216 215 217 216 215 215 215 216 217 216 215 214 212 213 213 213 215 218 224 229 229 226 224 224 223 223 224 222 218 217 221 225 225 223 220 216 215 214 216 220 222 222 224 227 227 222 221 222 222 225 229 233 237 238 239 241 243 240 236 234 233 234 237 236 233 237 241 238 235 236 237 241 248 252 254 257 261 265 269 271 271 273 276 277
224 220 219 218 217 216 215 215 217 217 217 217 216 214 214 215 215 215 218 222 226 227 226 225 225 224 223 224 222 219 216 218 222 225 226 224 221 217 216 217 220 223 223 224 227 228 225 223 224 226 228 229 232 236 238 239 240 243 244 241 238 235 232 232 231 230 232 234 236 239 240 239 244 253 257 257 259 260 262 265 267 266 266 269 270
225 220 219 218 217 217 216 216 217 218 218 219 217 216 215 216 215 216 218 221 224 225 225 224 224 224 223 223 222 220 217 217 219 223 226 227 225 222 220 219 220 223 224 224 226 229 228 225 224 227 230 232 233 236 239 240 239 240 241 240 240 239 237 237 237 236 234 235 236 239 242 244 250 259 264 266 268 265 262 262 263 263 264 266 267